Simultaneous Nadir Overpasses (SNOs) Predictions

Prediction of SNOs between NPP and TERRA Satellite Orbit:

Table of predicted SNOs for the next 14.0 days since TLE Epoch: 7/19/2025
Index Date (NPP) Time (NPP) Lat,Lon (NPP) SZA (NPP ) Date (TERRA) Time (TERRA) Lat,Lon (TERRA) SZA (TERRA ) Distance(km) Time Diff (sec)
1 07/21/2025 08:30:02 74.15, 41.63 54.10 07/21/2025 08:30:45 74.17, 41.63 54.11 2.79 43
2 07/21/2025 09:20:44 -74.07,-150.86 125.98 07/21/2025 09:20:06 -74.09,-150.88 125.95 2.16 38
3 07/23/2025 18:51:42 -74.18, 66.14 125.38 07/23/2025 18:52:27 -74.17, 66.14 125.40 1.48 45
4 07/23/2025 19:42:27 74.11,-126.38 54.56 07/23/2025 19:41:47 74.11,-126.32 54.56 2.08 40
5 07/26/2025 05:13:23 74.18, 90.73 55.15 07/26/2025 05:14:07 74.16, 90.67 55.13 2.31 44
6 07/26/2025 06:04:05 -74.10,-101.75 124.94 07/26/2025 06:03:28 -74.09,-101.83 124.93 2.38 37
7 07/28/2025 15:35:03 -74.21, 115.24 124.26 07/28/2025 15:35:48 -74.19, 115.26 124.30 2.14 45
8 07/28/2025 16:25:47 74.10, -77.17 55.62 07/28/2025 16:25:08 74.12, -77.22 55.66 3.02 39
9 07/31/2025 01:56:45 74.22, 139.80 56.33 07/31/2025 01:57:28 74.21, 139.83 56.31 1.50 43
10 07/31/2025 02:47:27 -74.14, -52.67 123.76 07/31/2025 02:46:49 -74.14, -52.64 123.74 1.20 38



Historial Predications of SNOs between NPP and TERRA
